Location: Colossi of Memnon
(25.7167°N, 32.6167°E)
Time: 11:46:20
(UTC+00:00)

Hubble Space Telescope - Visible Passes

Search period start: 29 November 2022 00:00
Search period end: 09 December 2022 00:00
Orbit: 530 x 534 km, 28.5° (Epoch: 28 November)

Date Brightness Start Highest point End Pass type
(mag) Time Alt. Az. Time Alt. Az. Time Alt. Az.
03 Dec 3.9 02:54:02 10° SSE 02:54:23 10° SSE 02:54:45 10° SE visible
04 Dec 3.5 02:39:40 10° S 02:41:42 13° SSE 02:43:42 10° ESE visible
05 Dec 3.2 02:27:03 13° S 02:28:59 17° SSE 02:31:41 10° ESE visible
06 Dec 2.8 02:15:58 21° SSE 02:16:18 22° SSE 02:19:28 10° ESE visible
06 Dec 0.9 03:53:01 10° WSW 03:57:06 74° SSE 04:01:10 10° E visible
07 Dec 2.9 02:04:42 24° SE 02:04:42 24° SE 02:07:05 10° E visible
07 Dec 0.7 03:40:22 10° WSW 03:44:28 87° SSE 03:48:33 10° ENE visible
08 Dec 3.4 01:53:17 18° ESE 01:53:17 18° ESE 01:54:38 10° E visible
08 Dec 0.7 03:28:31 15° W 03:31:50 82° N 03:35:56 10° ENE visible
